Regional Weather Roundup
Issued by NWS Burlington, VT

Home | Current Version | Previous Version | Text Only | Print | Product List | Glossary On
Versions: 1 2 3 4 5 6 7 8 9 10 11 12 13 14 15 16 17 18 19 20 21 22 23 24 25 26 27 28 29 30 31 32 33 34 35 36 37 38 39 40 41 42 43 44 45 46 47 48 49 50
000
ASUS41 KBTV 240610
RWRBTV
VERMONT REGIONAL WEATHER ROUNDUP
NATIONAL WEATHER SERVICE BURLINGTON VT
100 AM EST WED JAN 24 2018

NOTE: "FAIR" INDICATES FEW OR NO CLOUDS BELOW 12,000 FEET WITH NO
SIGNIFICANT WEATHER AND/OR OBSTRUCTIONS TO VISIBILITY.

* THESE REPORTS ARE NOT UNDER NWS QUALITY CONTROL AND/OR DO NOT
  REPORT WEATHER SUCH AS PRECIPITATION AND FOG.

VTZ001>019-240700-
_____VERMONT_____


CITY           SKY/WX    TMP DP  RH WIND       PRES   REMARKS
BURLINGTON     CLOUDY    39  31  72 SW5       29.48F
6HR MIN TEMP:  38; 6HR MAX TEMP:  41; 6HR PCP:  0.01;

MONTPELIER     CLOUDY    38  29  70 SW15G31   29.50F WCI  29
6HR MIN TEMP:  33; 6HR MAX TEMP:  38; 6HR PCP:  0.09;

MORRISVILLE    CLOUDY    34  32  92 S6        29.47F WCI  29
6HR MIN TEMP:  33; 6HR MAX TEMP:  37; 6HR PCP:  0.06;

ST. JOHNSBURY*   N/A     34  34 100 MISG      29.45F
6HR MIN TEMP:  33; 6HR MAX TEMP:  36; 6HR PCP:  0.05;

LYNDONVILLE*   CLOUDY    34  33  98 SE7       29.46F WCI  28
6HR MIN TEMP:  33; 6HR MAX TEMP:  35;

MIDDLEBURY*    CLOUDY    37  31  76 S9        29.51F WCI  31
6HR MIN TEMP:  35; 6HR MAX TEMP:  40;

RUTLAND*       CLOUDY    38  30  73 SW10G29   29.54F WCI  31
6HR MIN TEMP:  38; 6HR MAX TEMP:  42; 6HR PCP:  0.03;

SPRINGFIELD    CLOUDY    33  32  96 SE5       29.55S WCI  29
6HR MIN TEMP:  31; 6HR MAX TEMP:  39; 6HR PCP:  0.01;

HIGHGATE*      CLOUDY    37  32  81 SW5       29.47S
6HR MIN TEMP:  37; 6HR MAX TEMP:  40;

NEWPORT*       LGT RAIN  35  31  85 SW7G18    29.45S WCI  29
6HR MIN TEMP:  35; 6HR MAX TEMP:  38;

BENNINGTON     CLOUDY    39  31  72 VRB3      29.61R
6HR MIN TEMP:  37; 6HR MAX TEMP:  40; 6HR PCP:  0.01;

SUTTON*          N/A      0 N/A N/A MISG        N/A

_____LAKE CHAMPLAIN_____


CITY           SKY/WX    TMP DP  RH WIND       PRES   REMARKS
BURTON ISLAND*   N/A     37  32  81 W9G15       N/A  WCI  31
COLCHESTER RF*   N/A     41  32  70 W16G23      N/A
DIAMOND ISL*     N/A     41  32  70 S15G21      N/A

$$

NYZ007-026>031-035-052-083-087-240700-
_____NORTHERN NEW YORK_____


CITY           SKY/WX    TMP DP  RH WIND       PRES   REMARKS
PLATTSBURGH    RAIN      38  32  79 SW10G22   29.49R WCI  31
6HR MIN TEMP:  38; 6HR MAX TEMP:  41; 6HR PCP: TRACE;

SARANAC LAKE   LGT SNOW  29  26  89 W13G30    29.47R FOG     WCI  19
6HR MIN TEMP:  29; 6HR MAX TEMP:  35; 6HR PCP:  0.01;

MASSENA        LGT SNOW  32  30  92 W18G28    29.57R FOG     WCI  20
6HR MIN TEMP:  32; 6HR MAX TEMP:  39; 6HR PCP: TRACE;

OGDENSBURG*    CLOUDY    29  27  89 NW13G23   29.62R WCI  19
6HR MIN TEMP:  29; 6HR MAX TEMP:  38;

POTSDAM*       CLOUDY    30  27  86 W22G33    29.57R WCI  17
WATERTOWN      LGT SNOW  26  22  84 W18G31    29.71R FOG     WCI  13
6HR MIN TEMP:  26; 6HR MAX TEMP:  37; 6HR PCP:  0.05;

ALBANY         CLOUDY    39  30  70 SW3       29.64R
6HR MIN TEMP:  37; 6HR MAX TEMP:  41; 6HR PCP: TRACE;

GLENS FALLS    CLOUDY    38  31  76 SW8G25    29.58S
6HR MIN TEMP:  33; 6HR MAX TEMP:  40;


$$
NHZ002-005-011-240700-
_____NEW HAMPSHIRE_____


CITY           SKY/WX    TMP DP  RH WIND       PRES   REMARKS
LEBANON        MOCLDY    40  30  67 SW10      29.53S
6HR MIN TEMP:  33; 6HR MAX TEMP:  40; 6HR PCP:  0.02;

KEENE          MOCLDY    30  29  96 SW6       29.58F FOG     WCI  24
6HR MIN TEMP:  29; 6HR MAX TEMP:  34; 6HR PCP:  0.04;

MT WASHINGTON  BLWGSNOW  16  16 100 W67         N/A  VSB 0   WCI -11
6HR MIN TEMP:  16; 6HR MAX TEMP:  29; 6HR PCP:  0.09;

PLYMOUTH       CLOUDY    32  32  99 CALM      29.50F
6HR MIN TEMP:  32; 6HR MAX TEMP:  37; 6HR PCP:  0.03;

WHITEFIELD     CLOUDY    36  33  89 SW5       29.46F
6HR MIN TEMP:  35; 6HR MAX TEMP:  37; 6HR PCP:  0.08;


$$

_____REGIONAL QUEBEC LOCATIONS_____


CITY           SKY/WX    TMP DP  RH WIND       PRES   REMARKS
MONTREAL       CLOUDY    36  32  87 SW16G22   29.44S WCI  26
QUEBEC CITY    LGT SNOW  19  18  93 CALM      29.40F FOG
SHERBROOKE     CLOUDY    36  34  93 SW8       29.40F WCI  29

_____REGIONAL ONTARIO LOCATIONS_____


CITY           SKY/WX    TMP DP  RH WIND       PRES   REMARKS
OTTAWA         FLURRIES  21  16  79 W28G36    29.61R WCI   3

______KEY______
VSB  - VISIBILITY IN MILES
WCI  - WIND CHILL INDEX
HX   - HEAT INDEX
$$
NNNN




USA.gov is the U.S. government's official web portal to all federal, state and local government web resources and services.